Year,Month,Day,Hour,Minute,Value (Times are PST for temperature in C)
2009,08,19,00,00,17.70
2009,08,19,00,01,17.60
2009,08,19,00,02,17.60
2009,08,19,00,03,17.60
2009,08,19,00,04,17.60
2009,08,19,00,05,17.60
2009,08,19,00,06,17.60
2009,08,19,00,07,17.60
2009,08,19,00,08,17.60
2009,08,19,00,09,17.60
2009,08,19,00,10,17.60
2009,08,19,00,11,17.60
2009,08,19,00,12,17.50
2009,08,19,00,13,17.50
2009,08,19,00,14,17.50
2009,08,19,00,15,17.50
2009,08,19,00,16,17.50
2009,08,19,00,17,17.40
2009,08,19,00,18,17.40
2009,08,19,00,19,17.40
2009,08,19,00,20,17.40
2009,08,19,00,21,17.40
2009,08,19,00,22,17.40
2009,08,19,00,23,17.40
2009,08,19,00,24,17.40
2009,08,19,00,25,17.30
2009,08,19,00,26,17.30
2009,08,19,00,27,17.30
2009,08,19,00,28,17.30
2009,08,19,00,29,17.30
2009,08,19,00,30,17.30
2009,08,19,00,31,17.30
2009,08,19,00,32,17.30
2009,08,19,00,33,17.30
2009,08,19,00,34,17.20
2009,08,19,00,35,17.20
2009,08,19,00,36,17.20
2009,08,19,00,37,17.20
2009,08,19,00,38,17.20
2009,08,19,00,39,17.20
2009,08,19,00,40,17.20
2009,08,19,00,41,17.20
2009,08,19,00,42,17.20
2009,08,19,00,43,17.20
2009,08,19,00,44,17.20
2009,08,19,00,45,17.20
2009,08,19,00,46,17.20
2009,08,19,00,47,17.20
2009,08,19,00,48,17.10
2009,08,19,00,49,17.10
2009,08,19,00,50,17.10
2009,08,19,00,51,17.10
2009,08,19,00,52,17.10
2009,08,19,00,53,17.10
2009,08,19,00,54,17.10
2009,08,19,00,55,17.10
2009,08,19,00,56,17.10
2009,08,19,00,57,17.00
2009,08,19,00,58,17.00
2009,08,19,00,59,17.00
2009,08,19,01,00,17.00
2009,08,19,01,01,17.00
2009,08,19,01,02,17.00
2009,08,19,01,03,16.90
2009,08,19,01,04,16.90
2009,08,19,01,05,16.90
2009,08,19,01,06,16.90
2009,08,19,01,07,16.90
2009,08,19,01,08,16.90
2009,08,19,01,09,16.90
2009,08,19,01,10,16.90
2009,08,19,01,11,16.90
2009,08,19,01,12,16.90
2009,08,19,01,13,16.90
2009,08,19,01,14,16.90
2009,08,19,01,15,16.90
2009,08,19,01,16,16.90
2009,08,19,01,17,16.90
2009,08,19,01,18,16.90
2009,08,19,01,19,16.90
2009,08,19,01,20,16.90
2009,08,19,01,21,16.90
2009,08,19,01,22,16.80
2009,08,19,01,23,16.80
2009,08,19,01,24,16.80
2009,08,19,01,25,16.80
2009,08,19,01,26,16.80
2009,08,19,01,27,16.80
2009,08,19,01,28,16.80
2009,08,19,01,29,16.80
2009,08,19,01,30,16.80
2009,08,19,01,31,16.70
2009,08,19,01,32,16.70
2009,08,19,01,33,16.70
2009,08,19,01,34,16.70
2009,08,19,01,35,16.70
2009,08,19,01,36,16.70
2009,08,19,01,37,16.70
2009,08,19,01,38,16.70
2009,08,19,01,39,16.70
2009,08,19,01,40,16.70
2009,08,19,01,41,16.70
2009,08,19,01,42,16.70
2009,08,19,01,43,16.70
2009,08,19,01,44,16.70
2009,08,19,01,45,16.70
2009,08,19,01,46,16.60
2009,08,19,01,47,16.60
2009,08,19,01,48,16.60
2009,08,19,01,49,16.60
2009,08,19,01,50,16.60
2009,08,19,01,51,16.60
2009,08,19,01,52,16.60
2009,08,19,01,53,16.60
2009,08,19,01,54,16.60
2009,08,19,01,55,16.60
2009,08,19,01,56,16.60
2009,08,19,01,57,16.50
2009,08,19,01,58,16.50
2009,08,19,01,59,16.50
2009,08,19,02,00,16.50
2009,08,19,02,01,16.40
2009,08,19,02,02,16.40
2009,08,19,02,03,16.40
2009,08,19,02,04,16.40
2009,08,19,02,05,16.40
2009,08,19,02,06,16.40
2009,08,19,02,07,16.40
2009,08,19,02,08,16.30
2009,08,19,02,09,16.30
2009,08,19,02,10,16.30
2009,08,19,02,11,16.30
2009,08,19,02,12,16.30
2009,08,19,02,13,16.30
2009,08,19,02,14,16.30
2009,08,19,02,15,16.30
2009,08,19,02,16,16.30
2009,08,19,02,17,16.30
2009,08,19,02,18,16.30
2009,08,19,02,19,16.20
2009,08,19,02,20,16.20
2009,08,19,02,21,16.20
2009,08,19,02,22,16.20
2009,08,19,02,23,16.20
2009,08,19,02,24,16.20
2009,08,19,02,25,16.20
2009,08,19,02,26,16.20
2009,08,19,02,27,16.10
2009,08,19,02,28,16.10
2009,08,19,02,29,16.10
2009,08,19,02,30,16.10
2009,08,19,02,31,16.10
2009,08,19,02,32,16.10
2009,08,19,02,33,16.10
2009,08,19,02,34,16.10
2009,08,19,02,35,16.10
2009,08,19,02,36,16.10
2009,08,19,02,37,16.00
2009,08,19,02,38,16.00
2009,08,19,02,39,16.00
2009,08,19,02,40,16.00
2009,08,19,02,41,15.90
2009,08,19,02,42,15.90
2009,08,19,02,43,15.90
2009,08,19,02,44,15.90
2009,08,19,02,45,15.90
2009,08,19,02,46,15.90
2009,08,19,02,47,15.90
2009,08,19,02,48,15.90
2009,08,19,02,49,15.90
2009,08,19,02,50,15.90
2009,08,19,02,51,15.90
2009,08,19,02,52,15.90
2009,08,19,02,53,15.90
2009,08,19,02,54,15.90
2009,08,19,02,55,15.90
2009,08,19,02,56,15.90
2009,08,19,02,57,15.90
2009,08,19,02,58,15.80
2009,08,19,02,59,15.80
2009,08,19,03,00,15.80
2009,08,19,03,01,15.80
2009,08,19,03,02,15.80
2009,08,19,03,03,15.80
2009,08,19,03,04,15.80
2009,08,19,03,05,15.80
2009,08,19,03,06,15.80
2009,08,19,03,07,15.80
2009,08,19,03,08,15.80
2009,08,19,03,09,15.80
2009,08,19,03,10,15.70
2009,08,19,03,11,15.70
2009,08,19,03,12,15.70
2009,08,19,03,13,15.70
2009,08,19,03,14,15.70
2009,08,19,03,15,15.70
2009,08,19,03,16,15.70
2009,08,19,03,17,15.70
2009,08,19,03,18,15.70
2009,08,19,03,19,15.70
2009,08,19,03,20,15.70
2009,08,19,03,21,15.70
2009,08,19,03,22,15.70
2009,08,19,03,23,15.60
2009,08,19,03,24,15.60
2009,08,19,03,25,15.60
2009,08,19,03,26,15.60
2009,08,19,03,27,15.60
2009,08,19,03,28,15.60
2009,08,19,03,29,15.60
2009,08,19,03,30,15.60
2009,08,19,03,31,15.60
2009,08,19,03,32,15.60
2009,08,19,03,33,15.60
2009,08,19,03,34,15.60
2009,08,19,03,35,15.60
2009,08,19,03,36,15.50
2009,08,19,03,37,15.50
2009,08,19,03,38,15.50
2009,08,19,03,39,15.50
2009,08,19,03,40,15.50
2009,08,19,03,41,15.50
2009,08,19,03,42,15.50
2009,08,19,03,43,15.50
2009,08,19,03,44,15.50
2009,08,19,03,45,15.50
2009,08,19,03,46,15.40
2009,08,19,03,47,15.40
2009,08,19,03,48,15.40
2009,08,19,03,49,15.40
2009,08,19,03,50,15.40
2009,08,19,03,51,15.40
2009,08,19,03,52,15.40
2009,08,19,03,53,15.40
2009,08,19,03,54,15.40
2009,08,19,03,55,15.40
2009,08,19,03,56,15.40
2009,08,19,03,57,15.40
2009,08,19,03,58,15.40
2009,08,19,03,59,15.40
2009,08,19,04,00,15.30
2009,08,19,04,01,15.30
2009,08,19,04,02,15.30
2009,08,19,04,03,15.30
2009,08,19,04,04,15.30
2009,08,19,04,05,15.30
2009,08,19,04,06,15.30
2009,08,19,04,07,15.30
2009,08,19,04,08,15.30
2009,08,19,04,09,15.30
2009,08,19,04,10,15.30
2009,08,19,04,11,15.30
2009,08,19,04,12,15.30
2009,08,19,04,13,15.20
2009,08,19,04,14,15.20
2009,08,19,04,15,15.20
2009,08,19,04,16,15.20
2009,08,19,04,17,15.20
2009,08,19,04,18,15.20
2009,08,19,04,19,15.20
2009,08,19,04,20,15.20
2009,08,19,04,21,15.20
2009,08,19,04,22,15.20
2009,08,19,04,23,15.20
2009,08,19,04,24,15.20
2009,08,19,04,25,15.20
2009,08,19,04,26,15.20
2009,08,19,04,27,15.10
2009,08,19,04,28,15.10
2009,08,19,04,29,15.10
2009,08,19,04,30,15.10
2009,08,19,04,31,15.10
2009,08,19,04,32,15.10
2009,08,19,04,33,15.10
2009,08,19,04,34,15.10
2009,08,19,04,35,15.10
2009,08,19,04,36,15.10
2009,08,19,04,37,15.10
2009,08,19,04,38,15.10
2009,08,19,04,39,15.10
2009,08,19,04,40,15.10
2009,08,19,04,41,15.10
2009,08,19,04,42,15.10
2009,08,19,04,43,15.10
2009,08,19,04,44,15.00
2009,08,19,04,45,15.00
2009,08,19,04,46,15.00
2009,08,19,04,47,15.00
2009,08,19,04,48,15.00
2009,08,19,04,49,15.00
2009,08,19,04,50,15.00
2009,08,19,04,51,15.00
2009,08,19,04,52,15.00
2009,08,19,04,53,15.00
2009,08,19,04,54,15.00
2009,08,19,04,55,15.00
2009,08,19,04,56,15.00
2009,08,19,04,57,15.00
2009,08,19,04,58,15.00
2009,08,19,04,59,15.00
2009,08,19,05,00,15.00
2009,08,19,05,01,15.00
2009,08,19,05,02,15.00
2009,08,19,05,03,15.00
2009,08,19,05,04,15.00
2009,08,19,05,05,15.00
2009,08,19,05,06,15.00
2009,08,19,05,07,15.00
2009,08,19,05,08,15.00
2009,08,19,05,09,15.00
2009,08,19,05,10,15.00
2009,08,19,05,11,15.10
2009,08,19,05,12,15.10
2009,08,19,05,13,15.10
2009,08,19,05,14,15.10
2009,08,19,05,15,15.10
2009,08,19,05,16,15.10
2009,08,19,05,17,15.10
2009,08,19,05,18,15.10
2009,08,19,05,19,15.10
2009,08,19,05,20,15.20
2009,08,19,05,21,15.20
2009,08,19,05,22,15.20
2009,08,19,05,23,15.20
2009,08,19,05,24,15.20
2009,08,19,05,25,15.20
2009,08,19,05,26,15.20
2009,08,19,05,27,15.20
2009,08,19,05,28,15.20
2009,08,19,05,29,15.20
2009,08,19,05,30,15.20
2009,08,19,05,31,15.20
2009,08,19,05,32,15.20
2009,08,19,05,33,15.10
2009,08,19,05,34,15.10
2009,08,19,05,35,15.10
2009,08,19,05,36,15.10
2009,08,19,05,37,15.10
2009,08,19,05,38,15.10
2009,08,19,05,39,15.10
2009,08,19,05,40,15.10
2009,08,19,05,41,15.10
2009,08,19,05,42,15.00
2009,08,19,05,43,15.00
2009,08,19,05,44,15.00
2009,08,19,05,45,15.00
2009,08,19,05,46,15.00
2009,08,19,05,47,14.90
2009,08,19,05,48,14.90
2009,08,19,05,49,14.90
2009,08,19,05,50,14.90
2009,08,19,05,51,14.90
2009,08,19,05,52,14.90
2009,08,19,05,53,14.90
2009,08,19,05,54,14.90
2009,08,19,05,55,14.90
2009,08,19,05,56,14.80
2009,08,19,05,57,14.80
2009,08,19,05,58,14.80
2009,08,19,05,59,14.80
2009,08,19,06,00,14.80
2009,08,19,06,01,14.80
2009,08,19,06,02,14.80
2009,08,19,06,03,14.80
2009,08,19,06,04,14.80
2009,08,19,06,05,14.70
2009,08,19,06,06,14.70
2009,08,19,06,07,14.70
2009,08,19,06,08,14.70
2009,08,19,06,09,14.70
2009,08,19,06,10,14.70
2009,08,19,06,11,14.70
2009,08,19,06,12,14.70
2009,08,19,06,13,14.70
2009,08,19,06,14,14.70
2009,08,19,06,15,14.70
2009,08,19,06,16,14.70
2009,08,19,06,17,14.70
2009,08,19,06,18,14.70
2009,08,19,06,19,14.70
2009,08,19,06,20,14.70
2009,08,19,06,21,14.70
2009,08,19,06,22,14.70
2009,08,19,06,23,14.70
2009,08,19,06,24,14.70
2009,08,19,06,25,14.70
2009,08,19,06,26,14.60
2009,08,19,06,27,14.60
2009,08,19,06,28,14.60
2009,08,19,06,29,14.60
2009,08,19,06,30,14.60
2009,08,19,06,31,14.60
2009,08,19,06,32,14.60
2009,08,19,06,33,14.60
2009,08,19,06,34,14.60
2009,08,19,06,35,14.60
2009,08,19,06,36,14.60
2009,08,19,06,37,14.60
2009,08,19,06,38,14.60
2009,08,19,06,39,14.60
2009,08,19,06,40,14.60
2009,08,19,06,41,14.60
2009,08,19,06,42,14.60
2009,08,19,06,43,14.60
2009,08,19,06,44,14.60
2009,08,19,06,45,14.60
2009,08,19,06,46,14.60
2009,08,19,06,47,14.70
2009,08,19,06,48,14.70
2009,08,19,06,49,14.70
2009,08,19,06,50,14.70
2009,08,19,06,51,14.70
2009,08,19,06,52,14.80
2009,08,19,06,53,14.80
2009,08,19,06,54,14.80
2009,08,19,06,55,14.80
2009,08,19,06,56,14.80
2009,08,19,06,57,14.90
2009,08,19,06,58,14.90
2009,08,19,06,59,14.90
2009,08,19,07,00,14.90
2009,08,19,07,01,14.90
2009,08,19,07,02,14.90
2009,08,19,07,03,15.00
2009,08,19,07,04,15.00
2009,08,19,07,05,15.00
2009,08,19,07,06,15.00
2009,08,19,07,07,15.10
2009,08,19,07,08,15.10
2009,08,19,07,09,15.10
2009,08,19,07,10,15.10
2009,08,19,07,11,15.20
2009,08,19,07,12,15.20
2009,08,19,07,13,15.30
2009,08,19,07,14,15.30
2009,08,19,07,15,15.40
2009,08,19,07,16,15.50
2009,08,19,07,17,15.50
2009,08,19,07,18,15.60
2009,08,19,07,19,15.60
2009,08,19,07,20,15.70
2009,08,19,07,21,15.70
2009,08,19,07,22,15.80
2009,08,19,07,23,15.90
2009,08,19,07,24,15.90
2009,08,19,07,25,16.00
2009,08,19,07,26,16.10
2009,08,19,07,27,16.10
2009,08,19,07,28,16.20
2009,08,19,07,29,16.20
2009,08,19,07,30,16.30
2009,08,19,07,31,16.40
2009,08,19,07,32,16.50
2009,08,19,07,33,16.60
2009,08,19,07,34,16.60
2009,08,19,07,35,16.70
2009,08,19,07,36,16.80
2009,08,19,07,37,16.80
2009,08,19,07,38,16.90
2009,08,19,07,39,17.00
2009,08,19,07,40,17.00
2009,08,19,07,41,17.10
2009,08,19,07,42,17.10
2009,08,19,07,43,17.20
2009,08,19,07,44,17.20
2009,08,19,07,45,17.30
2009,08,19,07,46,17.40
2009,08,19,07,47,17.50
2009,08,19,07,48,17.50
2009,08,19,07,49,17.60
2009,08,19,07,50,17.70
2009,08,19,07,51,17.80
2009,08,19,07,52,17.80
2009,08,19,07,53,17.90
2009,08,19,07,54,18.00
2009,08,19,07,55,18.00
2009,08,19,07,56,18.10
2009,08,19,07,57,18.20
2009,08,19,07,58,18.40
2009,08,19,07,59,18.50
2009,08,19,08,00,18.60
2009,08,19,08,01,18.70
2009,08,19,08,02,18.80
2009,08,19,08,03,18.90
2009,08,19,08,04,19.00
2009,08,19,08,05,19.10
2009,08,19,08,06,19.20
2009,08,19,08,07,19.30
2009,08,19,08,08,19.40
2009,08,19,08,09,19.50
2009,08,19,08,10,19.60
2009,08,19,08,11,19.70
2009,08,19,08,12,19.80
2009,08,19,08,13,19.90
2009,08,19,08,14,20.00
2009,08,19,08,15,20.10
2009,08,19,08,16,20.20
2009,08,19,08,17,20.30
2009,08,19,08,18,20.30
2009,08,19,08,19,20.40
2009,08,19,08,20,20.40
2009,08,19,08,21,20.50
2009,08,19,08,22,20.60
2009,08,19,08,23,20.70
2009,08,19,08,24,20.70
2009,08,19,08,25,20.80
2009,08,19,08,26,20.90
2009,08,19,08,27,20.90
2009,08,19,08,28,21.00
2009,08,19,08,29,21.00
2009,08,19,08,30,21.10
2009,08,19,08,31,21.10
2009,08,19,08,32,21.20
2009,08,19,08,33,21.20
2009,08,19,08,34,21.30
2009,08,19,08,35,21.30
2009,08,19,08,36,21.30
2009,08,19,08,37,21.30
2009,08,19,08,38,21.40
2009,08,19,08,39,21.40
2009,08,19,08,40,21.40
2009,08,19,08,41,21.40
2009,08,19,08,42,21.50
2009,08,19,08,43,21.50
2009,08,19,08,44,21.50
2009,08,19,08,45,21.60
2009,08,19,08,46,21.60
2009,08,19,08,47,21.60
2009,08,19,08,48,21.70
2009,08,19,08,49,21.70
2009,08,19,08,50,21.80
2009,08,19,08,51,21.80
2009,08,19,08,52,21.80
2009,08,19,08,53,21.80
2009,08,19,08,54,21.80
2009,08,19,08,55,21.80
2009,08,19,08,56,21.80
2009,08,19,08,57,21.90
2009,08,19,08,58,21.90
2009,08,19,08,59,21.90
2009,08,19,09,00,21.90
2009,08,19,09,01,21.90
2009,08,19,09,02,22.00
2009,08,19,09,03,22.00
2009,08,19,09,04,22.10
2009,08,19,09,05,22.10
2009,08,19,09,06,22.20
2009,08,19,09,07,22.30
2009,08,19,09,08,22.30
2009,08,19,09,09,22.30
2009,08,19,09,10,22.30
2009,08,19,09,11,22.30
2009,08,19,09,12,22.30
2009,08,19,09,13,22.30
2009,08,19,09,14,22.30
2009,08,19,09,15,22.40
2009,08,19,09,16,22.40
2009,08,19,09,17,22.40
2009,08,19,09,18,22.40
2009,08,19,09,19,22.40
2009,08,19,09,20,22.40
2009,08,19,09,21,22.40
2009,08,19,09,22,22.40
2009,08,19,09,23,22.40
2009,08,19,09,24,22.40
2009,08,19,09,25,22.40
2009,08,19,09,26,22.40
2009,08,19,09,27,22.40
2009,08,19,09,28,22.50
2009,08,19,09,29,22.50
2009,08,19,09,30,22.60
2009,08,19,09,31,22.60
2009,08,19,09,32,22.70
2009,08,19,09,33,22.70
2009,08,19,09,34,22.70
2009,08,19,09,35,22.70
2009,08,19,09,36,22.80
2009,08,19,09,37,22.80
2009,08,19,09,38,22.90
2009,08,19,09,39,22.90
2009,08,19,09,40,22.90
2009,08,19,09,41,22.90
2009,08,19,09,42,23.00
2009,08,19,09,43,23.00
2009,08,19,09,44,23.00
2009,08,19,09,45,23.10
2009,08,19,09,46,23.10
2009,08,19,09,47,23.10
2009,08,19,09,48,23.10
2009,08,19,09,49,23.10
2009,08,19,09,50,23.10
2009,08,19,09,51,23.10
2009,08,19,09,52,23.10
2009,08,19,09,53,23.10
2009,08,19,09,54,23.10
2009,08,19,09,55,23.10
2009,08,19,09,56,23.10
2009,08,19,09,57,23.20
2009,08,19,09,58,23.30
2009,08,19,09,59,23.30
2009,08,19,10,00,23.40
2009,08,19,10,01,23.40
2009,08,19,10,02,23.50
2009,08,19,10,03,23.50
2009,08,19,10,04,23.50
2009,08,19,10,05,23.50
2009,08,19,10,06,23.60
2009,08,19,10,07,23.60
2009,08,19,10,08,23.70
2009,08,19,10,09,23.70
2009,08,19,10,10,23.70
2009,08,19,10,11,23.70
2009,08,19,10,12,23.80
2009,08,19,10,13,23.80
2009,08,19,10,14,23.80
2009,08,19,10,15,23.80
2009,08,19,10,16,23.80
2009,08,19,10,17,23.70
2009,08,19,10,18,23.70
2009,08,19,10,19,23.70
2009,08,19,10,20,23.70
2009,08,19,10,21,23.70
2009,08,19,10,22,23.70
2009,08,19,10,23,23.80
2009,08,19,10,24,23.80
2009,08,19,10,25,23.80
2009,08,19,10,26,23.90
2009,08,19,10,27,23.90
2009,08,19,10,28,24.00
2009,08,19,10,29,24.00
2009,08,19,10,30,24.10
2009,08,19,10,31,24.10
2009,08,19,10,32,24.10
2009,08,19,10,33,24.10
2009,08,19,10,34,24.00
2009,08,19,10,35,24.00
2009,08,19,10,36,23.90
2009,08,19,10,37,23.90
2009,08,19,10,38,24.00
2009,08,19,10,39,24.00
2009,08,19,10,40,24.00
2009,08,19,10,41,24.10
2009,08,19,10,42,24.10
2009,08,19,10,43,24.20
2009,08,19,10,44,24.20
2009,08,19,10,45,24.20
2009,08,19,10,46,24.20
2009,08,19,10,47,24.30
2009,08,19,10,48,24.30
2009,08,19,10,49,24.40
2009,08,19,10,50,24.50
2009,08,19,10,51,24.50
2009,08,19,10,52,24.50
2009,08,19,10,53,24.60
2009,08,19,10,54,24.70
2009,08,19,10,55,24.70
2009,08,19,10,56,24.80
2009,08,19,10,57,24.80
2009,08,19,10,58,24.70
2009,08,19,10,59,24.70
2009,08,19,11,00,24.60
2009,08,19,11,01,24.60
2009,08,19,11,02,24.60
2009,08,19,11,03,24.60
2009,08,19,11,04,24.60
2009,08,19,11,05,24.60
2009,08,19,11,06,24.70
2009,08,19,11,07,24.70
2009,08,19,11,08,24.70
2009,08,19,11,09,24.70
2009,08,19,11,10,24.70
2009,08,19,11,11,24.60
2009,08,19,11,12,24.60
2009,08,19,11,13,24.50
2009,08,19,11,14,24.50
2009,08,19,11,15,24.40
2009,08,19,11,16,24.40
2009,08,19,11,17,24.50
2009,08,19,11,18,24.50
2009,08,19,11,19,24.50
2009,08,19,11,20,24.60
2009,08,19,11,21,24.70
2009,08,19,11,22,24.70
2009,08,19,11,23,24.70
2009,08,19,11,24,24.80
2009,08,19,11,25,24.90
2009,08,19,11,26,25.00
2009,08,19,11,27,25.00
2009,08,19,11,28,25.00
2009,08,19,11,29,25.00
2009,08,19,11,30,25.10
2009,08,19,11,31,25.00
2009,08,19,11,32,24.90
2009,08,19,11,33,24.90
2009,08,19,11,34,24.80
2009,08,19,11,35,24.80
2009,08,19,11,36,24.80
2009,08,19,11,37,24.80
2009,08,19,11,38,24.90
2009,08,19,11,39,24.90
2009,08,19,11,40,24.90
2009,08,19,11,41,24.90
2009,08,19,11,42,25.00
2009,08,19,11,43,25.00
2009,08,19,11,44,25.00
2009,08,19,11,45,25.10
2009,08,19,11,46,25.10
2009,08,19,11,47,25.20
2009,08,19,11,48,25.20
2009,08,19,11,49,25.20
2009,08,19,11,50,25.20
2009,08,19,11,51,25.20
2009,08,19,11,52,25.20
2009,08,19,11,53,25.10
2009,08,19,11,54,25.00
2009,08,19,11,55,24.90
2009,08,19,11,56,24.90
2009,08,19,11,57,24.90
2009,08,19,11,58,25.00
2009,08,19,11,59,25.00
2009,08,19,12,00,25.10
2009,08,19,12,01,25.20
2009,08,19,12,02,25.20
2009,08,19,12,03,25.30
2009,08,19,12,04,25.30
2009,08,19,12,05,25.30
2009,08,19,12,06,25.30
2009,08,19,12,07,25.30
2009,08,19,12,08,25.20
2009,08,19,12,09,25.20
2009,08,19,12,10,25.10
2009,08,19,12,11,25.00
2009,08,19,12,12,24.90
2009,08,19,12,13,24.90
2009,08,19,12,14,24.80
2009,08,19,12,15,24.80
2009,08,19,12,16,24.90
2009,08,19,12,17,24.90
2009,08,19,12,18,25.00
2009,08,19,12,19,25.10
2009,08,19,12,20,25.20
2009,08,19,12,21,25.20
2009,08,19,12,22,25.40
2009,08,19,12,23,25.50
2009,08,19,12,24,25.70
2009,08,19,12,25,25.70
2009,08,19,12,26,25.80
2009,08,19,12,27,25.80
2009,08,19,12,28,25.70
2009,08,19,12,29,25.60
2009,08,19,12,30,25.60
2009,08,19,12,31,25.50
2009,08,19,12,32,25.50
2009,08,19,12,33,25.50
2009,08,19,12,34,25.40
2009,08,19,12,35,25.40
2009,08,19,12,36,25.50
2009,08,19,12,37,25.60
2009,08,19,12,38,25.60
2009,08,19,12,39,25.60
2009,08,19,12,40,25.60
2009,08,19,12,41,25.50
2009,08,19,12,42,25.60
2009,08,19,12,43,25.60
2009,08,19,12,44,25.70
2009,08,19,12,45,25.70
2009,08,19,12,46,25.60
2009,08,19,12,47,25.60
2009,08,19,12,48,25.60
2009,08,19,12,49,25.60
2009,08,19,12,50,25.70
2009,08,19,12,51,25.80
2009,08,19,12,52,25.90
2009,08,19,12,53,26.00
2009,08,19,12,54,26.10
2009,08,19,12,55,26.20
2009,08,19,12,56,26.20
2009,08,19,12,57,26.30
2009,08,19,12,58,26.30
2009,08,19,12,59,26.30
2009,08,19,13,00,26.30
2009,08,19,13,01,26.20
2009,08,19,13,02,26.10
2009,08,19,13,03,26.10
2009,08,19,13,04,26.00
2009,08,19,13,05,25.90
2009,08,19,13,06,25.90
2009,08,19,13,07,25.90
2009,08,19,13,08,25.90
2009,08,19,13,09,25.90
2009,08,19,13,10,25.90
2009,08,19,13,11,25.80
2009,08,19,13,12,25.80
2009,08,19,13,13,25.80
2009,08,19,13,14,25.80
2009,08,19,13,15,25.90
2009,08,19,13,16,25.90
2009,08,19,13,17,26.00
2009,08,19,13,18,26.00
2009,08,19,13,19,26.00
2009,08,19,13,20,25.90
2009,08,19,13,21,25.90
2009,08,19,13,22,25.90
2009,08,19,13,23,25.90
2009,08,19,13,24,25.90
2009,08,19,13,25,25.90
2009,08,19,13,26,26.00
2009,08,19,13,27,26.00
2009,08,19,13,28,26.10
2009,08,19,13,29,26.10
2009,08,19,13,30,26.10
2009,08,19,13,31,26.10
2009,08,19,13,32,26.20
2009,08,19,13,33,26.20
2009,08,19,13,34,26.30
2009,08,19,13,35,26.30
2009,08,19,13,36,26.30
2009,08,19,13,37,26.30
2009,08,19,13,38,26.30
2009,08,19,13,39,26.30
2009,08,19,13,40,26.30
2009,08,19,13,41,26.30
2009,08,19,13,42,26.30
2009,08,19,13,43,26.40
2009,08,19,13,44,26.40
2009,08,19,13,45,26.50
2009,08,19,13,46,26.60
2009,08,19,13,47,26.70
2009,08,19,13,48,26.80
2009,08,19,13,49,26.90
2009,08,19,13,50,26.90
2009,08,19,13,51,26.90
2009,08,19,13,52,26.90
2009,08,19,13,53,26.90
2009,08,19,13,54,27.00
2009,08,19,13,55,27.20
2009,08,19,13,56,27.30
2009,08,19,13,57,27.20
2009,08,19,13,58,27.00
2009,08,19,13,59,27.00
2009,08,19,14,00,26.90
2009,08,19,14,01,27.00
2009,08,19,14,02,27.00
2009,08,19,14,03,27.10
2009,08,19,14,04,27.20
2009,08,19,14,05,27.30
2009,08,19,14,06,27.40
2009,08,19,14,07,27.40
2009,08,19,14,08,27.40
2009,08,19,14,09,27.40
2009,08,19,14,10,27.40
2009,08,19,14,11,27.30
2009,08,19,14,12,27.30
2009,08,19,14,13,27.40
2009,08,19,14,14,27.30
2009,08,19,14,15,27.40
2009,08,19,14,16,27.40
2009,08,19,14,17,27.30
2009,08,19,14,18,27.30
2009,08,19,14,19,27.20
2009,08,19,14,20,27.20
2009,08,19,14,21,27.10
2009,08,19,14,22,27.20
2009,08,19,14,23,27.20
2009,08,19,14,24,27.30
2009,08,19,14,25,27.40
2009,08,19,14,26,27.50
2009,08,19,14,27,27.60
2009,08,19,14,28,27.70
2009,08,19,14,29,27.80
2009,08,19,14,30,27.80
2009,08,19,14,31,27.80
2009,08,19,14,32,27.80
2009,08,19,14,33,27.80
2009,08,19,14,34,27.80
2009,08,19,14,35,27.80
2009,08,19,14,36,27.70
2009,08,19,14,37,27.60
2009,08,19,14,38,27.50
2009,08,19,14,39,27.40
2009,08,19,14,40,27.30
2009,08,19,14,41,27.20
2009,08,19,14,42,27.20
2009,08,19,14,43,27.20
2009,08,19,14,44,27.20
2009,08,19,14,45,27.20
2009,08,19,14,46,27.20
2009,08,19,14,47,27.20
2009,08,19,14,48,27.30
2009,08,19,14,49,27.40
2009,08,19,14,50,27.50
2009,08,19,14,51,27.60
2009,08,19,14,52,27.70
2009,08,19,14,53,27.80
2009,08,19,14,54,27.80
2009,08,19,14,55,27.70
2009,08,19,14,56,27.70
2009,08,19,14,57,27.60
2009,08,19,14,58,27.60
2009,08,19,14,59,27.60
2009,08,19,15,00,27.70
2009,08,19,15,01,27.70
2009,08,19,15,02,27.70
2009,08,19,15,03,27.80
2009,08,19,15,04,27.80
2009,08,19,15,05,27.80
2009,08,19,15,06,27.80
2009,08,19,15,07,27.90
2009,08,19,15,08,28.00
2009,08,19,15,09,28.10
2009,08,19,15,10,28.20
2009,08,19,15,11,28.30
2009,08,19,15,12,28.40
2009,08,19,15,13,28.40
2009,08,19,15,14,28.40
2009,08,19,15,15,28.40
2009,08,19,15,16,28.40
2009,08,19,15,17,28.40
2009,08,19,15,18,28.30
2009,08,19,15,19,28.20
2009,08,19,15,20,28.20
2009,08,19,15,21,28.10
2009,08,19,15,22,28.10
2009,08,19,15,23,28.10
2009,08,19,15,24,28.10
2009,08,19,15,25,28.00
2009,08,19,15,26,28.00
2009,08,19,15,27,28.00
2009,08,19,15,28,28.00
2009,08,19,15,29,28.00
2009,08,19,15,30,28.00
2009,08,19,15,31,28.00
2009,08,19,15,32,28.00
2009,08,19,15,33,27.90
2009,08,19,15,34,27.90
2009,08,19,15,35,27.90
2009,08,19,15,36,27.90
2009,08,19,15,37,27.80
2009,08,19,15,38,27.80
2009,08,19,15,39,27.80
2009,08,19,15,40,27.70
2009,08,19,15,41,27.70
2009,08,19,15,42,27.70
2009,08,19,15,43,27.70
2009,08,19,15,44,27.80
2009,08,19,15,45,27.80
2009,08,19,15,46,27.80
2009,08,19,15,47,27.80
2009,08,19,15,48,27.80
2009,08,19,15,49,27.80
2009,08,19,15,50,27.80
2009,08,19,15,51,27.80
2009,08,19,15,52,27.80
2009,08,19,15,53,27.80
2009,08,19,15,54,27.80
2009,08,19,15,55,27.80
2009,08,19,15,56,27.80
2009,08,19,15,57,27.70
2009,08,19,15,58,27.70
2009,08,19,15,59,27.70
2009,08,19,16,00,27.70
2009,08,19,16,01,27.70
2009,08,19,16,02,27.70
2009,08,19,16,03,27.70
2009,08,19,16,04,27.70
2009,08,19,16,05,27.70
2009,08,19,16,06,27.70
2009,08,19,16,07,27.70
2009,08,19,16,08,27.70
2009,08,19,16,09,27.80
2009,08,19,16,10,27.90
2009,08,19,16,11,27.90
2009,08,19,16,12,27.90
2009,08,19,16,13,27.90
2009,08,19,16,14,27.90
2009,08,19,16,15,28.00
2009,08,19,16,16,28.10
2009,08,19,16,17,28.20
2009,08,19,16,18,28.30
2009,08,19,16,19,28.40
2009,08,19,16,20,28.50
2009,08,19,16,21,28.50
2009,08,19,16,22,28.50
2009,08,19,16,23,28.50
2009,08,19,16,24,28.50
2009,08,19,16,25,28.50
2009,08,19,16,26,28.60
2009,08,19,16,27,28.60
2009,08,19,16,28,28.70
2009,08,19,16,29,28.60
2009,08,19,16,30,28.60
2009,08,19,16,31,28.50
2009,08,19,16,32,28.40
2009,08,19,16,33,28.20
2009,08,19,16,34,28.10
2009,08,19,16,35,28.10
2009,08,19,16,36,28.00
2009,08,19,16,37,27.90
2009,08,19,16,38,27.90
2009,08,19,16,39,27.90
2009,08,19,16,40,28.00
2009,08,19,16,41,28.00
2009,08,19,16,42,28.00
2009,08,19,16,43,28.10
2009,08,19,16,44,28.10
2009,08,19,16,45,28.10
2009,08,19,16,46,28.10
2009,08,19,16,47,28.10
2009,08,19,16,48,28.00
2009,08,19,16,49,27.90
2009,08,19,16,50,27.90
2009,08,19,16,51,27.80
2009,08,19,16,52,27.80
2009,08,19,16,53,27.80
2009,08,19,16,54,27.70
2009,08,19,16,55,27.60
2009,08,19,16,56,27.60
2009,08,19,16,57,27.60
2009,08,19,16,58,27.60
2009,08,19,16,59,27.60
2009,08,19,17,00,27.60
2009,08,19,17,01,27.60
2009,08,19,17,02,27.60
2009,08,19,17,03,27.70
2009,08,19,17,04,27.80
2009,08,19,17,05,27.80
2009,08,19,17,06,27.80
2009,08,19,17,07,27.70
2009,08,19,17,08,27.60
2009,08,19,17,09,27.60
2009,08,19,17,10,27.50
2009,08,19,17,11,27.50
2009,08,19,17,12,27.40
2009,08,19,17,13,27.40
2009,08,19,17,14,27.40
2009,08,19,17,15,27.40
2009,08,19,17,16,27.30
2009,08,19,17,17,27.30
2009,08,19,17,18,27.30
2009,08,19,17,19,27.30